FW1349 Weather Reports


Display with metric or nautical units.
time (UTC)temp
F
wind
direction
speed
MPH
gust
MPH
rain 1hr
in
rain 24hr
in
rain mn
in
humidity
%
barometer
mb
20260905095037 70 113 1.0 2.0 0.00 0.00 0.00 90
20260905094016 70 0.0 0.0 0.00 0.00 0.00 90
20260905093036 69 0.0 0.0 0.00 0.00 0.00 90
20260905092017 69 113 1.0 2.0 0.00 0.00 0.00 90
20260905091016 69 0.0 0.0 0.00 0.00 0.00 90
20260905090017 69 113 1.0 3.0 0.00 0.00 0.00 90
20260905085016 69 0.0 0.0 0.00 0.00 0.00 90
20260905084016 69 0.0 1.0 0.00 0.00 0.00 90
20260905083037 69 0.0 2.0 0.00 0.00 0.00 89
20260905082016 69 0.0 1.0 0.00 0.00 0.00 89
20260905081016 69 113 1.0 3.0 0.00 0.00 0.00 89
20260905080016 69 113 1.0 4.0 0.00 0.00 0.00 88
20260905075016 69 0.0 0.0 0.00 0.00 0.00 88
20260905074016 69 0.0 1.0 0.00 0.00 0.00 87
20260905073015 69 113 1.0 3.0 0.00 0.00 0.00 87
20260905072016 69 0.0 1.0 0.00 0.00 0.00 87
20260905071056 70 0.0 1.0 0.00 0.00 0.00 87
20260905070016 70 0.0 1.0 0.00 0.00 0.00 86
20260905065015 70 0.0 2.0 0.00 0.00 0.00 86
20260905064015 70 0.0 1.0 0.00 0.00 0.00 86
20260905063035 71 113 1.0 3.0 0.00 0.00 0.00 85
20260905062016 71 0.0 2.0 0.00 0.00 0.00 84
20260905061017 71 113 1.0 3.0 0.00 0.00 0.00 83
20260905060058 72 0.0 0.0 0.00 0.00 0.00 83
20260905055017 72 0.0 2.0 0.00 0.00 0.00 82
20260905054018 72 0.0 0.0 0.00 0.00 0.00 81
20260905053017 73 0.0 0.0 0.00 0.00 0.00 81
20260905052018 73 0.0 1.0 0.00 0.00 0.00 81
20260905051017 73 0.0 0.0 0.00 0.00 0.00 80
20260905050016 73 0.0 2.0 0.00 0.00 0.00 80
20260905045016 74 0.0 2.0 0.00 0.00 0.00 79
20260905044016 74 0.0 1.0 0.00 0.00 0.00 79
20260905043017 74 0.0 0.0 0.00 0.00 0.00 78
20260905042016 75 0.0 0.0 0.00 0.00 0.00 78
20260905041017 75 0.0 1.0 0.00 0.00 0.00 77
20260905040017 76 0.0 1.0 0.00 0.00 0.00 76
20260905035037 76 0.0 0.0 0.00 0.00 0.00 76
20260905034016 76 0.0 2.0 0.00 0.00 0.00 76
20260905033017 77 113 1.0 3.0 0.00 0.00 0.00 75
20260905032016 77 113 2.0 4.0 0.00 0.00 0.00 74
20260905031037 77 113 1.0 3.0 0.00 0.00 0.00 73
20260905030016 78 113 1.0 4.0 0.00 0.00 0.00 73
20260905025016 78 113 2.0 6.0 0.00 0.00 0.00 72
20260905024016 79 113 1.0 3.0 0.00 0.00 0.00 72
20260905023016 79 113 1.0 4.0 0.00 0.00 0.00 71
20260905022036 80 113 2.0 4.0 0.00 0.00 0.00 71
20260905021016 80 113 2.0 3.0 0.00 0.00 0.00 71
20260905020016 80 113 1.0 4.0 0.00 0.00 0.00 70
20260905015016 81 113 1.0 3.0 0.00 0.00 0.00 70
20260905014016 81 0.0 1.0 0.00 0.00 0.00 69
20260905013015 82 0.0 2.0 0.00 0.00 0.00 69
20260905012016 82 0.0 1.0 0.00 0.00 0.00 68
20260905011036 83 0.0 0.0 0.00 0.00 0.00 67
20260905010037 83 113 1.0 2.0 0.00 0.00 0.00 67
20260905005016 84 113 1.0 3.0 0.00 0.00 0.00 66
20260905004015 84 113 1.0 3.0 0.00 0.00 0.00 65
20260905003036 85 113 1.0 3.0 0.00 0.00 0.00 64
20260905002056 85 113 1.0 2.0 0.00 0.00 0.00 63
20260905001016 86 113 1.0 2.0 0.00 0.00 0.00 62
20260905000017 86 113 1.0 4.0 0.00 0.00 0.00 62
20260904235037 87 113 2.0 3.0 0.00 0.00 0.00 61
20260904234017 87 113 1.0 3.0 0.00 0.00 0.00 61
20260904233017 88 135 2.0 5.0 0.00 0.00 0.00 61
20260904232018 89 135 1.0 3.0 0.00 0.00 0.00 60
20260904231058 90 45 2.0 4.0 0.00 0.00 0.00 59
20260904230017 90 135 2.0 5.0 0.00 0.00 0.00 58
20260904225018 91 45 2.0 4.0 0.00 0.00 0.00 59
20260904224038 90 113 2.0 4.0 0.00 0.00 0.00 58
20260904223017 91 68 1.0 3.0 0.00 0.00 0.00 59
20260904222018 90 45 1.0 3.0 0.00 0.00 0.00 59
20260904221017 90 90 1.0 3.0 0.00 0.00 0.00 60
20260904220017 90 113 3.0 6.0 0.00 0.00 0.00 59
20260904215038 90 113 2.0 6.0 0.00 0.00 0.00 60
20260904214017 90 68 3.0 5.0 0.00 0.00 0.00 60
20260904213018 90 90 3.0 7.0 0.00 0.00 0.00 60
20260904212017 90 68 2.0 4.0 0.00 0.00 0.00 62
20260904211017 89 45 2.0 8.0 0.00 0.00 0.00 62
20260904210017 89 135 2.0 4.0 0.00 0.00 0.00 62
20260904205017 89 68 2.0 6.0 0.00 0.00 0.00 63
20260904204017 89 90 2.0 4.0 0.00 0.00 0.00 63
20260904203017 89 68 2.0 4.0 0.00 0.00 0.00 63
20260904202017 88 90 2.0 4.0 0.00 0.00 0.00 64
20260904201016 87 68 3.0 7.0 0.00 0.00 0.00 66
20260904200016 87 90 3.0 7.0 0.00 0.00 0.00 67
20260904195017 86 90 3.0 6.0 0.00 0.00 0.00 68
20260904194016 86 135 3.0 5.0 0.00 0.00 0.00 69
20260904193017 85 113 2.0 6.0 0.00 0.00 0.00 71
20260904192016 85 113 2.0 5.0 0.00 0.00 0.00 71
20260904191037 85 113 3.0 6.0 0.00 0.00 0.00 71
20260904190016 85 113 2.0 4.0 0.00 0.04 0.00 72
20260904185017 85 113 4.0 8.0 0.00 0.04 0.00 72
20260904184037 84 113 3.0 8.0 0.00 0.04 0.00 73
20260904183016 84 90 4.0 9.0 0.00 0.04 0.00 72
20260904182016 85 135 3.0 7.0 0.00 0.04 0.00 72
20260904181016 85 90 4.0 7.0 0.00 0.04 0.00 71
20260904180016 85 135 3.0 6.0 0.00 0.05 0.00 72
20260904175017 85 90 3.0 9.0 0.00 0.05 0.00 73
20260904174016 85 113 3.0 7.0 0.00 0.05 0.00 74
20260904173016 85 113 4.0 7.0 0.00 0.05 0.00 73
20260904172016 85 113 3.0 7.0 0.00 0.05 0.00 74
20260904171015 85 113 4.0 8.0 0.00 0.05 0.00 73
20260904170057 86 135 4.0 7.0 0.00 0.05 0.00 72
20260904165015 87 90 4.0 10.0 0.00 0.05 0.00 71
20260904164056 88 90 4.0 7.0 0.00 0.05 0.00 70
20260904163016 88 90 3.0 7.0 0.00 0.05 0.00 70
20260904162016 88 90 2.0 5.0 0.00 0.05 0.00 71
20260904161016 87 135 3.0 6.0 0.00 0.05 0.00 70
20260904160016 87 68 2.0 4.0 0.00 0.05 0.00 72
20260904155017 86 23 1.0 4.0 0.00 0.05 0.00 73
20260904154018 85 158 1.0 3.0 0.00 0.05 0.00 75
20260904153017 85 68 2.0 5.0 0.00 0.05 0.00 75
20260904152017 84 68 1.0 3.0 0.00 0.05 0.00 77
20260904151018 83 0.0 3.0 0.00 0.05 0.00 80
20260904150017 81 68 1.0 3.0 0.00 0.05 0.00 83
20260904145017 80 68 1.0 2.0 0.00 0.05 0.00 87
20260904144018 79 68 1.0 3.0 0.00 0.05 0.00 90
20260904143017 78 113 1.0 3.0 0.00 0.05 0.00 92
20260904142017 77 68 2.0 4.0 0.00 0.05 0.00 94
20260904141017 76 68 1.0 2.0 0.00 0.05 0.00 94
20260904140017 75 0.0 1.0 0.00 0.05 0.00 94
20260904135017 75 0.0 0.0 0.00 0.05 0.00 93
20260904134038 75 0.0 2.0 0.00 0.05 0.00 93
20260904133038 74 0.0 0.0 0.00 0.05 0.00 93
20260904132016 74 0.0 0.0 0.00 0.05 0.00 93
20260904131017 74 0.0 0.0 0.00 0.05 0.00 93
20260904130017 73 0.0 0.0 0.00 0.05 0.00 93
20260904125017 73 0.0 0.0 0.00 0.05 0.00 93
20260904124016 73 0.0 0.0 0.00 0.05 0.00 92
20260904123016 73 0.0 0.0 0.00 0.05 0.00 92
20260904122017 73 0.0 0.0 0.00 0.05 0.00 91
20260904121016 73 0.0 0.0 0.00 0.05 0.00 91
20260904120036 73 0.0 1.0 0.00 0.05 0.00 91
20260904115037 73 0.0 0.0 0.00 0.05 0.00 91
20260904114039 73 0.0 0.0 0.00 0.05 0.00 91
20260904113016 73 0.0 0.0 0.00 0.05 0.00 91
20260904112036 73 0.0 0.0 0.00 0.05 0.00 91
20260904111017 73 0.0 0.0 0.00 0.05 0.00 91
20260904110016 74 0.0 0.0 0.00 0.05 0.00 91
20260904105017 74 0.0 0.0 0.00 0.05 0.00 90
20260904104016 74 0.0 0.0 0.00 0.05 0.00 90
20260904103016 74 0.0 0.0 0.00 0.05 0.00 89
20260904102016 74 0.0 0.0 0.00 0.05 0.00 89
20260904101017 74 0.0 0.0 0.00 0.05 0.00 89
20260904100016 74 0.0 0.0 0.00 0.05 0.00 89